TimeCDT,TemperatureF,Dew PointF,Humidity,Sea Level PressureIn,VisibilityMPH,Wind Direction,Wind SpeedMPH,Gust SpeedMPH,PrecipitationIn,Events,Conditions,WindDirDegrees,DateUTC
12:53 AM,63.0,55.0,75,30.09,10.0,East,5.8,-,N/A,,Clear,80,2013-08-13 05:53:00
1:53 AM,62.1,54.0,75,30.10,10.0,East,3.5,-,N/A,,Mostly Cloudy,80,2013-08-13 06:53:00
2:53 AM,61.0,55.0,81,30.11,10.0,Calm,Calm,-,N/A,,Partly Cloudy,0,2013-08-13 07:53:00
3:53 AM,59.0,54.0,83,30.12,10.0,Calm,Calm,-,N/A,,Clear,0,2013-08-13 08:53:00
4:53 AM,57.0,53.1,87,30.13,10.0,North,3.5,-,N/A,,Clear,360,2013-08-13 09:53:00
5:53 AM,55.9,52.0,87,30.13,10.0,NNE,3.5,-,N/A,,Clear,30,2013-08-13 10:53:00
6:53 AM,57.0,52.0,83,30.15,10.0,Calm,Calm,-,N/A,,Clear,0,2013-08-13 11:53:00
7:53 AM,61.0,52.0,72,30.17,10.0,Calm,Calm,-,N/A,,Clear,0,2013-08-13 12:53:00
8:53 AM,63.0,52.0,67,30.18,10.0,Calm,Calm,-,N/A,,Clear,0,2013-08-13 13:53:00
9:53 AM,66.9,48.0,51,30.19,10.0,Calm,Calm,-,N/A,,Clear,0,2013-08-13 14:53:00
10:53 AM,70.0,46.0,42,30.19,10.0,NNE,3.5,-,N/A,,Clear,20,2013-08-13 15:53:00
11:53 AM,70.0,46.0,42,30.19,10.0,NNW,10.4,-,N/A,,Partly Cloudy,340,2013-08-13 16:53:00
12:53 PM,71.1,43.0,36,30.19,10.0,North,6.9,-,N/A,,Mostly Cloudy,350,2013-08-13 17:53:00
1:53 PM,73.0,44.1,35,30.18,10.0,North,6.9,-,N/A,,Mostly Cloudy,350,2013-08-13 18:53:00
2:53 PM,73.9,44.1,34,30.17,10.0,NNE,6.9,-,N/A,,Partly Cloudy,20,2013-08-13 19:53:00
3:53 PM,75.0,45.0,34,30.16,10.0,NNW,11.5,18.4,N/A,,Partly Cloudy,330,2013-08-13 20:53:00
4:53 PM,75.0,45.0,34,30.16,10.0,NNW,6.9,-,N/A,,Clear,340,2013-08-13 21:53:00
5:53 PM,75.0,44.1,33,30.14,10.0,North,10.4,-,N/A,,Clear,10,2013-08-13 22:53:00
6:53 PM,73.0,43.0,34,30.13,10.0,North,6.9,-,N/A,,Clear,10,2013-08-13 23:53:00
7:53 PM,71.1,44.1,38,30.14,10.0,North,5.8,-,N/A,,Clear,10,2013-08-14 00:53:00
8:53 PM,66.9,48.9,52,30.14,10.0,Calm,Calm,-,N/A,,Clear,0,2013-08-14 01:53:00
9:53 PM,63.0,48.9,60,30.16,10.0,Calm,Calm,-,N/A,,Clear,0,2013-08-14 02:53:00
10:53 PM,62.1,50.0,65,30.17,10.0,Calm,Calm,-,N/A,,Clear,0,2013-08-14 03:53:00
11:53 PM,60.1,51.1,72,30.18,10.0,Calm,Calm,-,N/A,,Clear,0,2013-08-14 04:53:00